Regional Weather Roundup
Issued by NWS Columbia, SC

Home | Current Version | Previous Version | Text Only | Print | Product List | Glossary On
Versions: 1 2 3 4 5 6 7 8 9 10 11 12 13 14 15 16 17 18 19 20 21 22 23 24 25 26 27
000
ASUS42 KCAE 251010
RWRCAE
REGIONAL WEATHER ROUNDUP
NATIONAL WEATHER SERVICE COLUMBIA SC
500 AM EST SUN FEB 25 2018

NOTE: "FAIR" INDICATES FEW OR NO CLOUDS BELOW 12,000 FEET WITH NO
SIGNIFICANT WEATHER AND/OR OBSTRUCTIONS TO VISIBILITY.

NOT ALL STATIONS ARE QUALITY CONTROLLED BY THE NATIONAL
WEATHER SERVICE. USE DATA WITH CAUTION...ESPECIALLY
DEWPOINT OBSERVATIONS.

SCZ001>056-GAZ040-063>065-077-251100-
...UPSTATE SOUTH CAROLINA...

CITY           SKY/WX    TMP DP  RH WIND       PRES   REMARKS
ANDERSON       MOCLDY    62  57  83 SW5       30.03R
LIBERTY        PTSUNNY   62  60  94 S6        30.01S
SPARTANBURG    CLOUDY    64  55  72 SW5       30.03R
CLEMSON        FAIR      64  57  78 SW3       30.03S
GREENVILLE     CLOUDY    65  59  81 SW9       30.03R
GREENWOOD      FAIR      62  58  86 S12       30.05S
GREER          CLOUDY    64  58  80 SW9       30.03R
ROCK HILL      FAIR      62  58  86 S8        30.04R
CHESTER        FAIR      61  57  88 S5        30.05R
LAURENS        FAIR      63  59  88 S8        30.04R


...CENTRAL SOUTH CAROLINA...

CITY           SKY/WX    TMP DP  RH WIND       PRES   REMARKS
COLUMBIA APT   FAIR      65  63  93 SW9       30.06S
COLUMBIA OWENS FAIR      65  62  90 SW6       30.08R
MCENTIRE ANGB  FAIR      64  63  96 S8        30.07S
ORANGEBURG     FAIR      62  61  96 SW7       30.10R
SUMTER SHAW    FAIR      64  62  91 S10       30.05S
NEWBERRY       FAIR      63  59  88 S9        30.08R
AIKEN          FAIR      63  61  94 S8        30.10S
BARNWELL         N/A     64  64 100 S5        30.09S
MANNING        FAIR      64  55  72 MISG      30.09S
CAMDEN         FAIR      63  61  94 CALM      30.07S
LANCASTER      FAIR      64  63  94 SW13      30.05R
WINNSBORO      FAIR      61  59  94 S9        30.05F


...EASTERN AND COASTAL SOUTH CAROLINA...

CITY           SKY/WX    TMP DP  RH WIND       PRES   REMARKS
MYRTLE BEACH   FAIR      66  64  93 SW7       30.12F
N MYRTLE BCH   FAIR      63  63 100 SW12      30.11S
CONWAY         FAIR      64  64 100 S6        30.10F
MARION         FAIR      63  61  94 S8        30.09S
HARTSVILLE     PTSUNNY   61  61 100 S6        30.06S
FLORENCE       FAIR      64  63  96 S6        30.08S
DARLINGTON     FAIR      64  63  96 S9        30.07S
CHARLESTON APT FAIR      67  63  87 SW9       30.11S
MOUNT PLEASANT FAIR      68  64  88 S12G17    30.12S
WALTERBORO     FAIR      63  63 100 S6        30.11S
BEAUFORT       FAIR      68  66  93 S6        30.11


...EASTERN GEORGIA...

CITY           SKY/WX    TMP DP  RH WIND       PRES   REMARKS
AUGUSTA BUSH F FAIR      62  60  93 S6        30.07S
AUGUSTA DANIEL FAIR      64  60  87 S8        30.08S
THOMSON        FAIR      61  57  87 W6        30.12R
WASHINGTON     FAIR      61  55  82 S5        30.06R
CLAXTON        FAIR      65  64  95 CALM      30.11S
SYLVANIA       FAIR      64  64 100 CALM      30.11S
STATESBORO     FAIR      64  32  30 S3        30.11R
SAVANNAH       FAIR      66  64  93 S7        30.12R


...SOUTHERN NORTH CAROLINA...

CITY           SKY/WX    TMP DP  RH WIND       PRES   REMARKS
CHARLOTTE      FAIR      63  59  87 S10       30.03S
MONROE         FAIR      61  58  90 S3        30.03S
WADESBORO      FAIR      65  60  82 S8        30.04F
ROCKINGHAM     CLOUDY    64  64 100 S8        30.05S
RUTHERFORDTON  MOCLDY    65  59  81 S9G16     30.01R
ASHEVILLE      MOCLDY    64  54  69 SE8       30.01F

$$




USA.gov is the U.S. government's official web portal to all federal, state and local government web resources and services.